Regional Weather Roundup
Issued by NWS

Home | Current Version | Previous Version | Graphics & Text | Print | Product List | Glossary On
Versions: 1 2 3 4 5 6 7 8 9 10 11 12 13 14 15 16 17 18 19 20 21 22 23 24 25 26 27 28 29 30 31 32 33 34 35 36 37 38 39 40 41 42 43 44 45 46 47 48 49 50
000
ASUS43 KIND 291209
RWRIN

WEATHER ROUNDUP FOR INDIANA
NATIONAL WEATHER SERVICE INDIANAPOLIS IN
800 AM EDT SUN MAR 29 2015

NOTE: "FAIR" INDICATES FEW OR NO CLOUDS BELOW 12,000 FEET WITH NO
SIGNIFICANT WEATHER AND/OR OBSTRUCTIONS TO VISIBILITY.

* - STATION DOES NOT REPORT WEATHER SUCH AS PRECIPITATION OR FOG.

+ - STATION NOT QUALITY CONTROLLED BY THE NATIONAL WEATHER SERVICE.
    USE DATA WITH CAUTION...ESPECIALLY DEWPOINT AND RELATIVE
    HUMIDITY OBSERVATIONS.

INZ001>003-010>013-019-020-291300-
NORTHWEST INDIANA

CITY           SKY/WX    TMP DP  RH WIND       PRES   REMARKS
GARY /AIRPORT/ MOCLDY    32  12  43 S14       30.17F WCI  22
KNOX *+          N/A     28   5  37 S13       30.20F WCI  18
LA PORTE +     PTCLDY    29  19  65 S9G16     30.19F WCI  20
6HR MIN TEMP:  21; 6HR MAX TEMP:  29;

MICHIGAN CITY+ PTCLDY    28  12  50 S10G16    30.18F WCI  19
MONTICELLO +   CLEAR     28  19  68 S8        30.22S WCI  20
6HR MIN TEMP:  27; 6HR MAX TEMP:  29;

RENSSELAER +   PTCLDY    30  21  69 S12       30.20F WCI  21
VALPARAISO     PTCLDY    27  17  66 S8        30.18F WCI  19
6HR MIN TEMP:  22; 6HR MAX TEMP:  27;


$$

LMZ046-743>745-291300-
SOUTHERN LAKE MICHIGAN

STATION/POSITION TIME  TEMP WIND        PRES
                       AIR  DIR/SP/G
                 (UTC) (F)  (DEG/KT/KT) (MB)
BURNS HARBOR     1200   29  180/ 14/ 19 1022.0S
MICHIGAN CITY    1200   28  150/ 14/ 19   N/A

$$

INZ004-005-014>016-021>024-291300-
NORTH CENTRAL INDIANA

CITY           SKY/WX    TMP DP  RH WIND       PRES   REMARKS
ELKHART        CLEAR     27  12  54 S9        30.21  WCI  17
GOSHEN         PTCLDY    27  16  63 S14       30.22F WCI  16
6HR MIN TEMP:  21; 6HR MAX TEMP:  27;

LOGANSPORT +   PTCLDY    28  19  69 S12       30.25S WCI  18
PERU/GRISSOM   PTCLDY    27  18  69 S13       30.23S WCI  16
6HR MIN TEMP:  24; 6HR MAX TEMP:  27;

ROCHESTER +    PTCLDY    30  21  69 S8        30.24F WCI  23
SOUTH BEND     PTCLDY    29  15  56 S14       30.19F WCI  18
6HR MIN TEMP:  20; 6HR MAX TEMP:  29;

WARSAW +       PTCLDY    27  18  69 S7        30.24S WCI  19

$$

INZ006>009-017-018-025>027-291300-
NORTHEAST INDIANA

CITY           SKY/WX    TMP DP  RH WIND       PRES   REMARKS
ANGOLA *+      CLEAR     23  16  74 S7        30.23S WCI  15
AUBURN +       PTCLDY    27  16  63 S3        30.27R
FORT WAYNE     PTCLDY    25  17  72 S10       30.28S WCI  15
6HR MIN TEMP:  22; 6HR MAX TEMP:  25;

HUNTINGTON +   CLEAR     26  13  60 S7        30.26S WCI  18
6HR MIN TEMP:  24; 6HR MAX TEMP:  26;


$$

INZ028-029-035-036-043>045-051>053-291300-
WEST CENTRAL INDIANA

CITY           SKY/WX    TMP DP  RH WIND       PRES   REMARKS
CRAWFORDSVL +  PTCLDY    25  14  62 SE12      30.24F WCI  15
6HR MIN TEMP:  24; 6HR MAX TEMP:  26;

GREENCASTLE +  PTCLDY    25  14  63 S7        30.27R WCI  17
LAFAYETTE      PTCLDY    28  17  63 S7        30.23F WCI  21
6HR MIN TEMP:  26; 6HR MAX TEMP:  28;

TERRE HAUTE    CLEAR     27  17  66 S9        30.26F WCI  18
6HR MIN TEMP:  26; 6HR MAX TEMP:  28;


$$

INZ030>032-037>040-046>048-054>057-064-065-291300-
CENTRAL INDIANA

CITY           SKY/WX    TMP DP  RH WIND       PRES   REMARKS
CP ATTERBURY + CLEAR     25  18  74 S3        30.31R
COLUMBUS       CLEAR     23  12  63 S5        30.32R WCI  17
FISHERS *+     PTCLDY    25  18  74 S9        30.28R WCI  15
FRANKFORT +    PTCLDY    27  20  72 SE9       30.26S WCI  18
6HR MIN TEMP:  24; 6HR MAX TEMP:  27;

GREENWOOD *+   CLEAR     27  14  59 S12       30.29R WCI  16
INDIANAPOLIS   MOCLDY    26  14  60 SE10      30.26S WCI  16
6HR MIN TEMP:  24; 6HR MAX TEMP:  27;

-EAGLE CREEK   PTCLDY    26  14  60 S7        30.27R WCI  18
6HR MIN TEMP:  24; 6HR MAX TEMP:  26;

KOKOMO *+        N/A     27  18  69 S15       30.26R WCI  15
6HR MIN TEMP:  25; 6HR MAX TEMP:  27;

MARION +       PTCLDY    25  17  69 S10       30.27S WCI  15
MT COMFORT *+  CLEAR     27  10  50 S8        30.29R WCI  18
SHELBYVILLE    CLEAR     28  17  63 S9        30.30R WCI  19
6HR MIN TEMP:  26; 6HR MAX TEMP:  28;

ZIONSVILLE +   PTCLDY    27  15  61 S7        30.27S WCI  20
6HR MIN TEMP:  24; 6HR MAX TEMP:  27;


$$

INZ033-034-041-042-049-050-058-059-291300-
EAST CENTRAL INDIANA

CITY           SKY/WX    TMP DP  RH WIND       PRES   REMARKS
MUNCIE         CLEAR     26  14  60 S8        30.28R WCI  18
6HR MIN TEMP:  24; 6HR MAX TEMP:  26;


$$

INZ060-061-067>069-081>083-085>088-291300-
SOUTHWEST INDIANA

CITY           SKY/WX    TMP DP  RH WIND       PRES   REMARKS
EVANSVILLE     CLEAR     32  20  61 SE3       30.31R
6HR MIN TEMP:  27; 6HR MAX TEMP:  32;

HUNTINGBURG *+ CLEAR     28  16  59 SE7       30.31R WCI  21
6HR MIN TEMP:  25; 6HR MAX TEMP:  28;

WASHINGTON +   FAIR      29  18  63 S7        30.29R WCI  22
6HR MIN TEMP:  27; 6HR MAX TEMP:  30;


$$

INZ062-063-066-070>080-084-089>092-291300-
SOUTH CENTRAL AND SOUTHEAST INDIANA

CITY           SKY/WX    TMP DP  RH WIND       PRES   REMARKS
BEDFORD +      CLEAR     27  16  63 SE7       30.30R WCI  19
BLOOMINGTON    CLEAR     24  16  71 S7        30.28R WCI  16
6HR MIN TEMP:  24; 6HR MAX TEMP:  27;

NORTH VERNON + CLEAR     27  14  59 SE6       30.32S WCI  20
SEYMOUR +      CLEAR     28  18  64 S5        30.32S WCI  23

$$



USA.gov is the U.S. government's official web portal to all federal, state and local government web resources and services.